Datos meteoreol�gicos.
Lugar de muestreo: Estaci�n de Fotobiolog�a Playa Uni�n (EFPU) en Playa Uni�n, Chubut, Argentina (-43.311263, -65.040969).
Datos aportados al Sistema Nacional de Datos del Mar.
Fecha,Temperatura_Max,Humedad_Max,Vel.Viento_Km/h_Max,Temperatura_Min,Humedad_Min,Vel.Viento_Km/h_Min,Temperatura_Prom,Humedad_Prom,Vel.Viento_Km/h_Prom,Direcci�n_Viento
2008-01-01,30.8,49.0,49.0,12.8,16.0,0.0,22.7,28.4,17.4,WSW
2008-01-02,31.2,80.0,51.5,15.2,15.0,0.0,21.5,38.1,18.2,WSW
2008-01-03,19.2,53.0,43.2,13.4,25.0,9.0,16.1,41.4,23.1,ENE
2008-01-04,34.9,64.0,40.7,12.5,11.0,0.0,24.2,27.7,18.6,NNW
2008-01-05,28.9,88.0,43.2,17.5,20.0,5.0,23.1,44.8,20.6,ENE
2008-01-06,31.9,81.0,28.4,14.7,21.0,0.0,21.7,55.2,10.7,NE
2008-01-07,34.0,40.0,53.6,16.4,14.0,0.0,27.2,21.9,19.2,WSW
2008-01-08,29.3,40.0,47.5,18.4,17.0,5.8,24.2,23.6,22.6,WSW
2008-01-09,31.4,60.0,64.4,14.2,13.0,0.0,24.0,28.4,23.7,W
2008-01-10,19.3,64.0,66.6,10.7,22.0,5.0,14.1,33.8,29.4,WSW
2008-01-11,24.2,62.0,61.9,11.2,20.0,5.8,17.2,27.7,22.2,WSW
2008-01-12,32.0,57.0,39.2,13.8,18.0,0.0,22.5,31.4,16.2,NNW
2008-01-13,33.3,90.0,37.1,18.5,18.0,4.3,23.1,37.1,15.9,W
2008-01-14,30.0,62.0,28.4,17.0,19.0,0.0,20.8,41.7,11.2,WSW
2008-01-15,23.1,88.0,59.0,13.5,26.0,6.5,17.8,59.5,30.7,SSW
2008-01-16,25.3,92.0,33.8,8.7,21.0,4.3,16.5,65.7,17.6,ENE
2008-01-17,21.7,88.0,50.8,11.8,27.0,0.0,16.2,73.1,19.3,SSE
2008-01-18,28.2,90.0,31.7,9.9,21.0,4.3,17.2,64.4,14.6,WNW
2008-01-19,22.3,88.0,44.6,13.6,58.0,0.0,17.6,78.9,19.4,NE
2008-01-20,29.4,90.0,55.1,14.6,23.0,0.0,20.3,63.0,22.2,NNW
2008-01-21,29.7,89.0,27.0,16.1,38.0,0.0,19.8,80.2,11.2,ENE
2008-01-22,21.9,88.0,29.5,14.4,71.0,0.0,17.5,83.5,12.7,ENE
2008-01-23,32.7,83.0,49.7,15.7,22.0,0.0,20.8,68.9,13.6,ENE
2008-01-25,29.7,86.0,56.5,20.7,37.0,11.9,25.7,55.9,34.9,NNE
2008-01-26,34.8,87.0,56.5,18.4,28.0,0.0,23.5,70.7,20.2,NNE
2008-01-27,20.7,89.0,22.7,17.0,76.0,5.0,18.5,81.5,14.3,SSE
2008-01-28,21.2,84.0,37.1,16.4,72.0,5.8,17.8,77.6,20.8,ESE
2008-01-29,23.9,88.0,38.5,11.9,33.0,0.0,18.6,67.0,16.0,NE
2008-01-30,34.1,87.0,50.0,11.7,19.0,0.0,23.2,46.8,21.0,NNW
2008-01-31,31.9,83.0,35.3,17.2,20.0,0.0,21.6,54.3,14.3,SE
2008-02-01,22.2,83.0,45.4,14.7,33.0,0.0,18.2,69.3,18.8,ENE
2008-02-02,24.9,84.0,36.4,15.0,34.0,4.3,18.8,70.6,16.1,NNE
2008-02-03,33.5,86.0,50.8,13.5,22.0,0.0,23.3,53.9,14.4,NE
2008-02-04,28.6,77.0,67.3,14.5,26.0,7.6,18.8,55.7,26.5,SSE
2008-02-05,20.8,85.0,53.6,13.2,43.0,5.8,17.1,71.8,21.1,S
2008-02-06,25.3,86.0,49.7,13.4,22.0,5.8,17.7,61.9,24.0,SE
2008-02-07,24.3,85.0,59.8,9.5,23.0,0.0,17.6,49.7,21.2,NNE
2008-02-08,27.3,79.0,63.7,15.9,26.0,0.0,19.8,55.3,33.2,NNW
2008-02-11,31.7,72.0,63.4,21.6,27.0,0.0,27.4,37.1,33.6,NNE
2008-02-12,36.3,83.0,50.8,18.4,18.0,0.0,22.7,49.4,20.2,SE
2008-02-13,28.6,85.0,40.7,13.7,28.0,0.0,20.2,61.5,15.5,NE
2008-02-14,27.4,85.0,71.3,16.3,20.0,0.0,21.8,45.3,25.6,WSW
2008-02-15,26.1,88.0,37.8,10.5,21.0,0.0,17.6,56.6,16.4,W
2008-02-16,32.8,88.0,33.8,14.3,17.0,0.0,20.7,61.5,16.7,NE
2008-02-17,24.4,84.0,38.5,15.8,31.0,0.0,18.9,49.0,16.2,ENE
2008-02-18,27.2,85.0,43.9,11.1,22.0,0.0,18.2,59.5,17.2,NE
2008-02-19,34.8,85.0,35.6,16.8,12.0,0.0,24.2,50.5,15.3,NNE
2008-02-20,30.6,84.0,44.6,18.6,22.0,0.0,22.7,44.7,14.4,WSW
2008-02-21,32.7,79.0,36.4,16.3,19.0,0.0,23.1,48.3,15.0,W
2008-02-22,23.4,84.0,33.8,17.6,31.0,6.5,20.3,54.4,19.1,SSW
2008-02-23,23.7,87.0,39.2,14.0,59.0,0.0,19.1,79.1,17.9,ENE
2008-02-24,22.7,84.0,27.7,17.0,76.0,4.3,19.1,79.8,13.2,NNE
2008-02-25,24.3,81.0,27.7,19.6,70.0,5.8,21.3,76.4,14.9,NE
2008-02-26,29.2,83.0,43.2,18.0,43.0,0.0,22.6,72.4,17.5,NNE
2008-02-27,33.8,82.0,50.8,19.8,29.0,4.3,25.9,57.4,22.7,NNE
2008-02-28,29.2,86.0,25.6,19.6,33.0,0.0,22.9,63.6,11.5,ENE
2008-02-29,37.4,84.0,60.5,19.4,18.0,0.0,27.6,49.0,19.6,NNW
2008-03-01,26.9,81.0,39.2,17.8,33.0,5.8,19.8,53.7,23.3,S
2008-03-02,22.9,88.0,36.4,10.9,37.0,0.0,17.2,68.5,16.6,E
2008-03-03,20.1,87.0,39.2,11.0,43.0,5.0,16.5,63.4,15.8,SE
2008-03-04,24.7,91.0,37.8,10.2,46.0,0.0,17.4,76.2,13.5,ENE
2008-03-05,24.3,89.0,31.7,16.6,63.0,5.0,19.5,81.8,14.4,ENE
2008-03-06,20.6,90.0,29.5,12.3,76.0,0.0,17.5,86.1,12.7,SE
2008-03-07,31.0,91.0,42.1,11.0,21.0,0.0,20.5,52.7,16.6,NNE
2008-03-08,29.5,93.0,52.2,16.1,20.0,0.0,21.1,52.9,16.6,WSW
2008-03-09,17.0,91.0,53.6,10.2,36.0,4.3,14.9,54.5,21.9,S
2008-03-10,27.6,94.0,50.8,6.7,17.0,0.0,17.6,50.5,18.9,NNW
2008-03-11,30.6,75.0,37.1,14.0,18.0,0.0,21.6,32.4,13.4,ENE
2008-03-12,25.3,89.0,32.4,15.9,22.0,0.0,20.1,50.0,14.7,SE
2008-03-13,28.1,93.0,43.9,12.0,25.0,0.0,20.0,61.1,14.5,NNW
2008-03-14,29.5,83.0,68.8,16.1,25.0,9.0,22.9,48.9,32.2,NNW
2008-03-15,32.6,56.0,54.4,18.9,18.0,0.0,25.4,29.6,17.8,W
2008-03-16,29.8,46.0,35.6,17.4,20.0,0.0,22.7,30.5,15.6,W
2008-03-17,23.6,56.0,55.8,13.7,21.0,5.8,18.2,37.2,20.6,WSW
2008-03-18,29.7,94.0,71.3,10.0,20.0,0.0,20.2,52.3,28.2,NNW
2008-03-19,25.7,87.0,72.7,19.3,20.0,8.3,22.3,36.7,31.5,WSW
2008-03-20,24.3,52.0,57.6,15.8,15.0,4.3,18.6,32.4,21.4,W
2008-03-21,17.5,91.0,47.5,8.6,42.0,0.0,15.3,61.3,23.9,SSE
2008-03-22,24.8,68.0,50.0,6.4,16.0,6.5,16.1,38.4,19.9,W
2008-03-23,27.6,92.0,33.1,12.6,21.0,0.0,17.6,48.7,14.8,SE
2008-03-24,29.3,91.0,51.5,11.7,22.0,0.0,20.3,59.9,17.9,NNE
2008-03-25,26.8,90.0,58.3,14.4,26.0,0.0,20.1,52.2,21.8,NNW
2008-03-26,19.3,92.0,40.0,10.2,39.0,0.0,15.9,69.4,17.7,S
2008-03-27,23.6,96.0,28.8,8.0,23.0,0.0,15.1,67.7,13.8,W
2008-03-28,28.8,92.0,29.5,9.2,19.0,0.0,16.6,64.0,12.8,W
2008-03-29,30.5,93.0,54.4,11.4,19.0,0.0,20.4,46.6,19.6,NW
2008-03-30,31.1,89.0,36.4,15.7,21.0,0.0,21.8,51.3,16.1,NNW
2008-03-31,20.6,91.0,38.5,14.2,33.0,7.2,17.1,61.0,19.7,SSE
2008-04-01,24.0,95.0,36.4,8.8,31.0,0.0,15.7,75.3,15.5,NE
2008-04-02,27.1,94.0,28.4,10.9,22.0,0.0,17.6,68.3,13.2,WNW
2008-04-03,31.3,81.0,43.2,15.2,19.0,5.0,22.7,42.2,16.0,W
2008-04-04,21.3,85.0,29.5,13.6,32.0,0.0,17.8,52.1,14.7,S
2008-04-05,13.5,82.0,20.9,10.0,61.0,4.3,11.6,74.4,9.7,WNW
2008-04-07,24.1,29.0,66.6,18.6,21.0,7.6,21.5,22.9,35.8,W
2008-04-08,25.8,91.0,63.7,11.7,22.0,0.0,18.6,34.6,19.0,W
2008-04-09,14.0,94.0,35.3,6.2,36.0,5.8,11.3,72.5,17.8,WSW
2008-04-10,16.8,95.0,44.6,3.2,25.0,7.2,8.9,61.0,18.2,W
2008-04-11,13.3,93.0,49.0,1.0,26.0,5.0,7.0,48.5,19.6,WSW
2008-04-12,15.2,93.0,54.4,2.2,33.0,9.0,8.2,46.6,21.2,W
2008-04-14,17.8,45.0,37.8,6.8,23.0,5.8,13.4,28.6,17.1,WSW
2008-04-15,18.9,38.0,34.6,5.5,24.0,0.0,10.9,29.7,12.8,W
2008-04-16,20.1,33.0,68.8,8.6,22.0,4.3,14.2,27.1,22.2,SW
2008-04-17,21.3,45.0,40.7,6.6,23.0,0.0,13.8,32.8,17.2,W
2008-04-18,24.7,93.0,38.5,13.0,29.0,5.0,17.3,58.4,15.0,W
2008-04-19,23.7,93.0,55.1,13.0,35.0,0.0,17.7,73.9,20.8,NNE
2008-04-20,28.4,88.0,40.0,15.9,22.0,0.0,19.7,53.2,14.0,NNW
2008-04-21,19.1,93.0,49.0,8.4,32.0,0.0,14.9,66.9,13.8,SSE
2008-04-22,18.7,98.0,38.5,3.6,23.0,0.0,11.5,52.9,13.2,W
2008-04-23,20.9,46.0,43.2,4.6,28.0,0.0,13.3,34.9,15.5,W
2008-04-24,17.6,92.0,36.4,9.2,30.0,5.0,13.4,54.5,14.1,WSW
2008-04-25,21.3,95.0,28.8,6.2,26.0,0.0,11.5,71.2,14.3,W
2008-04-26,17.4,97.0,49.0,4.2,28.0,0.0,10.8,62.8,14.8,NNW
2008-04-27,11.9,94.0,60.5,5.5,42.0,0.0,9.1,71.5,19.7,W
2008-04-28,10.4,96.0,59.8,2.3,41.0,5.0,6.2,77.6,23.7,WSW
2008-04-29,18.2,94.0,36.4,4.3,34.0,7.2,10.5,61.8,17.1,WSW
2008-04-30,17.6,98.0,36.4,3.0,35.0,0.0,11.3,71.9,14.8,NNE
2008-05-01,15.1,94.0,36.4,7.1,33.0,5.0,11.2,59.4,13.8,W
2008-05-02,18.1,98.0,35.6,2.0,34.0,5.0,10.3,74.7,14.9,NNW
2008-05-03,25.7,81.0,56.9,9.7,20.0,6.5,16.3,33.4,25.7,NNW
2008-05-04,23.5,61.0,49.0,11.9,22.0,0.0,17.8,31.6,15.7,NW
2008-05-05,19.4,91.0,31.7,10.6,25.0,0.0,15.2,50.8,11.7,W
2008-05-06,13.4,64.0,43.9,3.7,25.0,0.0,10.3,43.7,17.2,W
2008-05-07,17.7,46.0,33.8,3.8,28.0,0.0,10.0,37.0,17.2,W
2008-05-08,17.6,48.0,33.1,7.8,29.0,0.0,11.4,38.4,14.6,W
2008-05-09,18.4,51.0,42.1,4.4,27.0,0.0,11.1,38.1,13.7,W
2008-05-10,21.6,76.0,24.8,6.3,30.0,5.0,12.7,46.3,12.9,W
2008-05-11,19.5,62.0,24.1,4.7,26.0,0.0,11.7,36.9,11.0,WNW
2008-05-12,21.2,52.0,33.8,6.7,29.0,0.0,13.5,39.2,13.5,W
2008-05-13,24.5,44.0,28.4,11.0,29.0,0.0,17.2,36.3,13.6,WNW
2008-05-14,24.2,93.0,43.2,6.6,23.0,7.2,15.9,52.4,22.9,WNW
2008-05-15,9.8,96.0,33.1,1.2,38.0,4.3,6.0,76.9,15.6,WSW
2008-05-16,11.3,97.0,56.5,0.5,79.0,5.0,6.8,90.3,17.7,NNW
2008-05-17,15.8,96.0,44.6,9.5,70.0,0.0,11.7,88.6,16.1,NNW
2008-05-19,8.3,94.0,53.6,1.2,44.0,7.6,5.5,60.6,23.3,WSW
2008-05-20,6.4,98.0,37.1,-0.6,70.0,0.0,3.1,87.7,11.7,W
2008-05-21,9.1,93.0,59.0,5.0,87.0,0.0,7.4,88.7,22.9,E
2008-05-22,11.6,91.0,35.6,2.4,84.0,0.0,6.7,86.5,13.9,NNE
2008-05-23,11.8,92.0,56.9,4.8,47.0,6.5,9.9,64.4,25.5,SW
2008-05-24,16.1,94.0,30.2,3.4,40.0,4.3,9.1,71.2,14.3,W
2008-05-25,14.9,79.0,42.1,4.8,36.0,7.2,11.0,56.5,21.4,NNW
2008-05-26,10.9,93.0,26.3,0.3,38.0,0.0,4.9,68.4,12.7,W
2008-05-27,7.8,95.0,63.7,0.5,33.0,6.5,3.9,61.4,21.0,SSW
2008-05-28,5.9,92.0,52.2,0.8,39.0,12.6,3.3,56.6,30.5,SSW
2008-05-29,8.3,95.0,33.8,1.2,60.0,11.9,4.3,81.3,20.0,SSW
2008-05-30,11.7,98.0,22.7,0.2,49.0,4.3,3.5,83.5,12.4,SSW
2008-05-31,9.5,98.0,19.4,-3.0,39.0,0.0,2.7,75.9,10.5,SSW
2008-06-01,10.6,97.0,15.8,-2.4,47.0,5.8,3.1,83.1,11.3,SSW
2008-06-02,11.7,97.0,37.1,-1.1,65.0,0.0,5.7,88.2,15.2,SSW
2008-06-03,10.0,92.0,22.0,8.5,69.0,22.0,9.4,78.9,22.0,SSW
2008-06-04,13.9,94.0,23.4,6.3,53.0,0.0,10.2,78.2,9.2,WNW
2008-06-05,14.6,94.0,30.2,2.5,48.0,0.0,7.6,81.3,14.0,W
2008-06-06,13.7,92.0,38.5,3.7,38.0,0.0,8.1,71.8,18.4,W
2008-06-07,15.6,97.0,21.2,0.9,36.0,0.0,6.2,76.2,9.4,W
2008-06-08,8.5,96.0,25.6,1.6,71.0,0.0,4.8,88.9,12.5,W
2008-06-09,10.8,95.0,33.8,1.7,42.0,0.0,6.4,70.5,15.4,W
2008-06-10,13.5,73.0,66.6,6.5,33.0,8.3,9.9,48.3,23.5,W
2008-06-11,10.3,76.0,56.5,1.7,32.0,7.6,7.1,43.2,27.2,SW
2008-06-12,15.4,84.0,52.2,1.8,31.0,7.6,8.8,53.4,24.4,W
2008-06-13,15.8,92.0,70.2,4.1,30.0,5.0,8.8,53.8,24.0,W
2008-06-14,9.2,84.0,87.1,2.4,38.0,8.3,6.6,63.6,36.1,SSW
2008-06-15,13.0,88.0,41.4,-0.6,37.0,5.0,6.3,61.1,16.1,W
2008-06-16,14.8,72.0,68.0,5.5,25.0,0.0,11.4,39.5,21.0,WSW
2008-06-17,10.1,72.0,33.1,-0.1,37.0,0.0,5.6,44.5,14.4,W
2008-06-18,10.9,90.0,22.7,-3.5,32.0,0.0,2.8,59.0,11.9,W
2008-06-19,15.0,91.0,22.7,-1.7,36.0,0.0,5.5,75.4,10.3,W
2008-06-20,12.3,97.0,21.2,1.8,62.0,0.0,6.6,84.2,8.6,NNE
2008-06-21,10.9,98.0,32.4,0.4,53.0,5.0,5.4,80.3,14.0,NNW
2008-06-22,8.8,98.0,22.0,-3.3,45.0,4.3,2.3,78.0,11.5,WNW
2008-06-23,7.6,98.0,26.3,-3.5,55.0,5.0,1.6,80.5,11.8,WNW
2008-06-24,8.5,98.0,20.2,-1.3,67.0,0.0,3.4,84.7,10.9,WNW
2008-06-25,11.7,97.0,29.5,-0.7,38.0,0.0,4.4,76.3,13.9,WNW
2008-06-26,15.6,87.0,46.1,3.1,36.0,6.5,9.0,61.0,15.9,WNW
2008-06-27,17.3,55.0,40.0,10.9,36.0,8.3,14.1,44.0,19.8,WNW
2008-06-28,13.6,94.0,31.0,7.7,43.0,0.0,10.1,58.8,14.9,W
2008-06-29,13.3,94.0,41.4,7.5,64.0,0.0,9.4,86.9,17.3,NNE
2008-06-30,11.0,92.0,63.4,0.6,38.0,0.0,6.9,59.9,23.4,SW
2008-07-01,9.4,75.0,31.0,-2.5,32.0,0.0,2.2,53.3,14.4,W
2008-07-02,8.6,93.0,29.5,-5.6,32.0,0.0,1.1,58.2,12.1,W
2008-07-03,14.5,69.0,22.0,0.3,31.0,0.0,6.5,47.0,9.6,WNW
2008-07-04,19.1,96.0,38.5,4.1,30.0,0.0,11.3,59.0,14.9,NW
2008-07-05,19.1,42.0,49.0,9.2,26.0,5.8,14.4,35.2,23.0,WSW
2008-07-06,16.4,78.0,56.9,1.0,31.0,0.0,9.4,43.1,19.2,NNW
2008-07-07,17.1,91.0,33.1,5.5,28.0,0.0,11.8,52.8,15.5,NW
2008-07-08,12.7,94.0,50.0,1.1,27.0,0.0,6.8,51.7,17.8,WSW
2008-07-09,6.8,97.0,30.2,-4.3,38.0,0.0,2.1,51.6,11.8,W
2008-07-10,11.0,98.0,55.1,1.8,81.0,4.3,7.5,89.4,20.3,NNE
2008-07-11,13.0,95.0,27.7,1.9,64.0,0.0,7.1,87.9,11.5,W
2008-07-12,15.8,90.0,46.1,7.4,44.0,5.0,12.6,81.1,18.0,NNE
2008-07-13,16.1,68.0,41.4,6.1,28.0,0.0,10.1,43.5,19.0,W
2008-07-14,15.7,86.0,18.7,5.7,36.0,0.0,11.0,51.6,8.7,NNW
2008-07-15,15.1,55.0,9.0,10.9,44.0,9.0,13.4,48.5,9.0,NNW
2008-07-16,18.9,93.0,37.1,9.9,34.0,0.0,14.4,56.1,16.4,W
2008-07-17,13.9,73.0,55.8,5.2,36.0,5.8,11.0,50.6,20.9,WSW
2008-07-18,10.1,92.0,34.6,0.9,38.0,6.5,5.8,68.3,16.7,WSW
2008-07-19,9.0,94.0,27.7,-0.1,42.0,0.0,4.3,72.6,14.7,WSW
2008-07-20,6.7,98.0,18.7,-3.3,67.0,0.0,2.0,88.2,8.7,W
2008-07-21,7.5,96.0,26.3,0.3,84.0,0.0,3.8,89.3,11.0,WSW
2008-07-22,8.6,90.0,31.7,-0.9,86.0,0.0,3.8,88.9,12.9,NNE
2008-07-23,12.6,91.0,33.1,5.4,76.0,5.8,8.7,86.1,16.1,NNW
2008-07-24,13.3,95.0,33.1,0.6,35.0,0.0,6.8,74.4,13.6,W
2008-07-25,15.1,85.0,40.0,3.8,28.0,0.0,9.6,45.6,15.9,NNW
2008-07-26,16.2,91.0,24.8,1.4,31.0,0.0,7.4,57.9,12.0,WNW
2008-07-27,17.1,92.0,19.4,2.4,28.0,0.0,8.4,60.8,10.9,WNW
2008-07-28,13.9,89.0,37.1,2.7,27.0,0.0,8.2,52.0,14.1,W
2008-07-29,14.2,61.0,37.8,0.5,27.0,0.0,7.2,40.1,14.7,W
2008-07-30,10.4,94.0,55.1,0.1,44.0,0.0,5.1,67.1,14.9,NW
2008-07-31,10.1,95.0,31.0,-1.4,34.0,0.0,3.3,62.7,13.4,W
2008-08-01,7.4,95.0,43.9,-0.7,62.0,0.0,5.3,78.2,21.7,SSE
2008-08-02,10.2,97.0,31.0,-1.7,45.0,0.0,3.4,81.4,12.8,NNE
2008-08-03,11.8,93.0,55.8,2.2,34.0,5.8,6.5,65.5,24.7,NNW
2008-08-04,11.0,84.0,44.6,-0.9,33.0,0.0,4.3,52.6,15.8,W
2008-08-05,14.5,54.0,62.6,1.6,27.0,0.0,7.2,38.8,21.7,W
2008-08-06,11.4,55.0,63.7,2.5,27.0,5.0,6.9,38.1,24.7,W
2008-08-07,12.0,61.0,53.6,2.7,27.0,0.0,7.2,37.0,22.0,SW
2008-08-08,11.8,53.0,36.4,0.9,30.0,0.0,5.8,40.5,16.9,W
2008-08-09,8.9,95.0,24.1,-1.2,41.0,0.0,4.2,68.6,9.8,W
2008-08-10,16.9,96.0,52.2,1.9,29.0,6.5,9.1,60.3,19.5,WNW
2008-08-11,12.6,94.0,45.4,0.7,30.0,0.0,6.0,53.4,16.4,WSW
2008-08-12,15.6,96.0,43.9,-2.1,26.0,0.0,6.4,56.0,15.9,WNW
2008-08-13,7.6,94.0,37.1,0.6,43.0,0.0,5.0,66.4,15.2,WSW
2008-08-14,17.9,95.0,37.1,1.9,27.0,0.0,10.4,53.1,17.0,NNW
2008-08-15,16.6,86.0,49.7,9.3,34.0,0.0,13.5,56.0,21.9,NW
2008-08-16,11.0,96.0,47.5,-1.9,40.0,5.0,5.2,65.7,20.9,SW
2008-08-17,11.1,97.0,40.7,-2.4,29.0,0.0,3.5,60.3,14.3,WNW
2008-08-18,13.6,98.0,27.0,-0.6,46.0,0.0,5.9,85.1,12.6,ENE
2008-08-19,9.8,92.0,34.6,6.7,80.0,5.8,8.2,89.9,16.4,NE
2008-08-20,11.3,92.0,33.1,1.1,31.0,0.0,6.4,64.3,12.7,SSW
2008-08-21,15.5,72.0,52.2,-0.8,26.0,0.0,7.3,43.2,17.1,W
2008-08-22,18.0,71.0,35.6,2.0,24.0,0.0,9.8,39.2,15.7,W
2008-08-23,22.3,61.0,45.4,1.2,22.0,0.0,12.0,37.4,15.5,NNW
2008-08-24,16.7,47.0,33.1,3.8,26.0,0.0,10.9,35.6,14.3,W
2008-08-25,21.0,36.0,28.4,14.1,25.0,5.0,17.2,30.9,16.0,NNW
2008-08-26,22.3,93.0,32.4,7.4,30.0,0.0,13.3,56.7,12.7,NW
2008-08-27,17.3,88.0,42.1,5.9,24.0,0.0,10.9,44.1,17.5,W
2008-08-28,9.4,96.0,43.9,1.6,39.0,0.0,6.8,81.9,17.6,S
2008-08-29,18.3,97.0,30.2,0.9,31.0,0.0,8.5,68.6,12.8,NNW
2008-09-01,15.8,90.0,45.4,6.8,68.0,6.5,12.0,81.7,19.7,W
2008-09-02,9.2,92.0,55.1,4.1,56.0,7.6,6.8,80.9,26.3,SSW
2008-09-03,6.5,89.0,61.9,1.7,40.0,7.2,4.0,63.3,28.3,SSW
2008-09-04,10.5,97.0,30.2,-1.2,36.0,5.0,3.9,69.9,15.5,WSW
2008-09-05,18.6,50.0,36.4,6.5,23.0,5.8,12.0,35.7,19.0,NNE
2008-09-06,19.9,90.0,32.4,0.5,23.0,0.0,9.2,46.4,11.3,NNW
2008-09-07,18.8,96.0,43.2,3.3,24.0,0.0,10.8,45.6,15.7,W
2008-09-08,17.4,86.0,28.4,2.8,26.0,0.0,9.1,51.4,12.6,W
2008-09-09,19.4,97.0,30.2,1.3,23.0,0.0,9.6,57.3,13.0,W
2008-09-10,16.3,92.0,30.2,4.7,26.0,0.0,9.1,48.4,10.3,W
2008-09-11,12.7,76.0,49.0,1.7,33.0,6.5,6.9,53.5,21.7,S
2008-09-12,9.7,96.0,41.4,0.7,63.0,8.3,6.2,83.3,17.9,SSE
2008-09-13,10.5,96.0,31.7,3.3,74.0,4.3,7.6,89.6,15.6,ENE
2008-09-14,15.2,92.0,49.0,7.4,45.0,0.0,10.1,78.4,22.7,NNE
2008-09-15,25.3,91.0,46.1,8.3,21.0,0.0,14.6,57.3,20.0,NNW
2008-09-16,26.6,93.0,73.4,7.8,21.0,0.0,17.3,46.8,25.3,NNW
2008-09-17,19.6,91.0,54.4,5.6,29.0,0.0,13.6,54.6,15.0,NNW
2008-09-18,13.4,93.0,24.8,3.3,37.0,0.0,8.0,76.4,13.7,SE
2008-09-19,13.7,96.0,42.5,1.1,69.0,0.0,8.3,84.7,16.3,NE
2008-09-20,16.9,94.0,46.1,4.6,34.0,5.0,10.4,67.6,19.1,NNE
2008-09-22,28.2,33.0,54.4,16.5,16.0,5.8,22.3,22.9,29.5,NNW
2008-09-23,25.8,42.0,56.5,12.9,20.0,0.0,19.2,27.3,19.8,WSW
2008-09-24,22.4,88.0,31.7,8.3,26.0,0.0,14.0,42.0,12.7,NNW
2008-09-25,23.5,91.0,52.9,7.7,31.0,0.0,15.2,58.0,18.5,NNW
2008-09-26,26.4,87.0,47.5,12.5,26.0,0.0,16.4,53.4,18.6,NNE
2008-09-27,19.9,93.0,33.1,8.1,30.0,0.0,13.0,72.2,12.8,SSE
2008-09-28,9.0,94.0,22.7,3.2,88.0,0.0,5.8,91.9,9.2,S
2008-09-29,22.6,87.0,44.6,11.3,26.0,5.8,15.9,51.7,22.7,S
2008-09-30,22.7,89.0,46.8,11.3,26.0,5.0,13.4,72.2,20.3,S
2008-10-01,23.7,64.0,52.9,11.4,24.0,0.0,16.6,40.7,16.7,S
2008-10-02,21.9,48.0,46.8,6.4,20.0,5.8,15.1,29.9,17.5,ENE
2008-10-03,17.9,75.0,29.5,4.4,21.0,5.0,10.5,33.9,16.8,WSW
2008-10-04,18.3,37.0,16.6,7.5,20.0,16.6,12.9,27.5,16.6,WSW
2008-10-05,21.5,29.0,16.6,10.1,22.0,16.6,15.8,25.3,16.6,WSW
2008-10-06,16.0,92.0,44.6,2.9,26.0,7.2,9.6,57.4,20.2,WSW
2008-10-07,18.0,86.0,47.5,-1.0,23.0,5.0,8.9,41.6,18.8,NNE
2008-10-08,26.6,87.0,55.8,9.6,20.0,8.3,16.9,41.7,27.5,NNW
2008-10-09,28.5,90.0,37.8,11.8,20.0,0.0,17.3,48.7,15.3,NNW
2008-10-10,28.9,92.0,40.7,9.7,20.0,0.0,15.3,53.3,14.5,W
2008-10-11,22.3,92.0,62.6,9.4,22.0,0.0,16.4,44.8,27.0,W
2008-10-13,13.4,91.0,37.1,10.2,73.0,0.0,12.0,86.2,16.6,NE
2008-10-14,24.6,93.0,26.3,7.9,24.0,0.0,12.8,71.4,12.7,ESE
2008-10-15,19.9,92.0,31.0,4.8,36.0,0.0,11.7,76.7,11.8,NE
2008-10-16,16.7,96.0,36.4,5.3,71.0,0.0,11.4,84.5,15.3,ENE
2008-10-17,19.0,90.0,31.0,7.5,35.0,0.0,13.0,54.9,12.9,NE
2008-10-18,27.5,63.0,38.5,15.7,20.0,7.6,19.1,37.4,20.6,NE
2008-10-19,23.1,63.0,52.9,12.8,22.0,0.0,17.6,34.7,14.3,WSW
2008-10-20,23.4,53.0,59.0,7.9,21.0,0.0,15.2,34.8,22.5,WSW
2008-10-21,18.6,49.0,74.2,11.0,24.0,5.0,14.7,29.1,32.7,WSW
2008-10-22,20.4,34.0,63.4,7.7,23.0,6.5,14.9,26.3,29.1,WSW
2008-10-23,26.0,92.0,43.2,6.3,20.0,0.0,17.9,42.4,19.4,W
2008-10-24,19.2,57.0,50.0,9.4,24.0,7.6,14.5,36.9,21.9,WSW
2008-10-25,29.1,93.0,55.1,7.4,18.0,0.0,16.6,41.8,18.1,NNW
2008-10-26,17.3,62.0,55.1,8.5,24.0,7.6,12.9,39.0,23.1,SW
2008-10-27,24.4,93.0,60.5,4.8,20.0,0.0,15.4,46.5,25.6,NNW
2008-10-28,21.9,93.0,33.8,8.8,26.0,4.3,13.9,49.7,14.6,ENE
2008-10-29,17.0,91.0,49.7,7.8,27.0,5.8,12.0,54.8,16.7,W
2008-10-30,30.2,87.0,48.2,7.0,16.0,0.0,19.8,35.5,16.5,NW
2008-10-31,30.0,36.0,52.2,15.4,18.0,0.0,23.6,23.8,20.5,WSW
2008-11-01,21.4,53.0,61.9,9.5,17.0,9.0,15.6,29.7,25.0,SSW
2008-11-02,25.6,78.0,46.8,7.8,15.0,0.0,15.6,37.7,19.2,W
2008-11-03,25.8,40.0,40.7,9.3,20.0,0.0,18.0,27.1,16.8,W
2008-11-04,28.1,34.0,64.4,14.7,19.0,6.5,21.1,24.7,27.1,W
2008-11-05,24.4,93.0,56.5,9.0,23.0,0.0,17.0,51.9,20.3,W
2008-11-06,25.1,94.0,49.7,4.7,21.0,0.0,17.1,48.0,16.7,NW
2008-11-07,26.8,88.0,61.9,9.8,17.0,0.0,19.6,40.4,20.8,WNW
2008-11-08,21.8,31.0,73.4,12.1,17.0,11.2,17.7,22.2,32.2,WSW
2008-11-09,26.2,30.0,52.9,12.7,20.0,7.2,20.6,22.6,24.5,WSW
2008-11-10,25.3,90.0,56.5,11.5,18.0,0.0,17.8,38.1,18.3,NNE
2008-11-11,22.7,47.0,32.4,10.8,24.0,4.3,14.5,38.8,14.9,NW
2008-11-12,25.0,64.0,49.7,15.3,22.0,4.3,19.1,37.9,19.5,NE
2008-11-13,21.7,90.0,45.4,11.8,23.0,7.6,14.9,50.2,22.5,ENE
2008-11-14,13.1,92.0,37.1,8.6,77.0,5.0,11.4,86.4,18.9,SE
2008-11-15,24.6,94.0,35.6,3.9,18.0,0.0,11.6,61.6,14.0,W
2008-11-16,26.8,90.0,42.1,11.5,15.0,7.2,18.2,33.5,18.8,W
2008-11-17,15.9,89.0,38.5,8.4,38.0,5.8,12.4,69.9,19.9,SE
2008-11-18,23.9,93.0,56.9,7.0,26.0,5.0,16.1,55.6,28.0,NNW
2008-11-19,31.9,62.0,50.0,14.7,19.0,5.0,19.0,45.3,18.2,NW
2008-11-20,35.0,87.0,59.0,17.8,17.0,0.0,25.1,47.9,21.6,S
2008-11-21,23.5,91.0,69.5,14.8,22.0,0.0,17.9,64.4,12.3,S
2008-11-22,30.4,87.0,62.6,12.7,16.0,0.0,20.4,33.5,17.9,W
2008-11-23,24.4,60.0,46.8,14.6,19.0,0.0,17.7,36.3,18.0,SW
2008-11-24,29.7,88.0,42.5,14.3,18.0,0.0,20.2,42.6,16.7,W
2008-11-25,23.3,92.0,41.4,11.4,38.0,0.0,17.2,73.8,13.2,ENE
2008-11-26,27.1,91.0,53.6,15.7,36.0,0.0,20.2,78.9,20.1,NNE
2008-11-27,30.6,88.0,56.9,19.3,18.0,0.0,24.6,51.0,22.7,NNW
2008-11-28,26.9,58.0,48.2,15.2,21.0,5.0,20.2,30.8,19.1,WSW
2008-11-29,19.2,90.0,40.7,11.7,37.0,5.0,15.3,62.1,16.8,NE
2008-11-30,30.8,93.0,42.5,8.4,19.0,0.0,19.0,44.6,16.1,NNE
2008-12-01,29.3,57.0,43.9,14.5,20.0,0.0,21.4,35.3,18.7,NNW
2008-12-02,24.9,91.0,25.6,14.4,32.0,0.0,17.3,69.1,14.4,ESE
2008-12-03,26.8,89.0,55.8,14.1,23.0,0.0,18.2,74.8,26.7,NE
2008-12-04,17.1,91.0,54.4,13.5,82.0,0.0,14.9,85.1,21.6,SE
2008-12-05,30.7,91.0,27.0,10.0,28.0,0.0,17.5,70.7,11.0,W
2008-12-06,37.6,90.0,63.4,12.5,16.0,0.0,26.2,41.3,22.3,WNW
2008-12-07,25.8,90.0,56.5,13.9,23.0,7.6,17.7,63.8,25.4,S
2008-12-08,20.0,91.0,39.2,12.4,74.0,0.0,16.2,85.1,18.5,ENE
2008-12-09,20.0,90.0,41.4,12.5,72.0,5.0,15.4,83.6,21.0,ESE
2008-12-10,22.3,94.0,49.7,7.0,34.0,0.0,15.2,69.7,19.2,ENE
2008-12-11,26.1,90.0,42.5,13.0,30.0,5.8,19.3,58.8,21.8,NNW
2008-12-12,32.2,89.0,30.2,17.5,28.0,0.0,23.0,60.7,16.2,ENE
2008-12-13,19.3,89.0,35.6,14.9,80.0,0.0,17.0,84.5,16.1,SE
2008-12-14,33.2,88.0,29.5,15.6,29.0,5.0,20.9,74.9,14.5,NNW
2008-12-15,34.5,87.0,47.5,17.6,16.0,0.0,25.2,38.1,17.7,WSW
2008-12-16,28.2,86.0,52.9,15.5,17.0,0.0,21.1,30.6,19.2,SW
2008-12-17,30.9,78.0,40.7,14.2,19.0,0.0,20.9,37.5,15.7,ENE
2008-12-18,24.5,90.0,35.3,15.2,28.0,0.0,19.2,48.0,15.4,ENE
2008-12-19,29.8,89.0,65.2,14.5,32.0,4.3,20.2,54.8,18.0,NNE
2008-12-20,30.0,36.0,77.8,17.7,20.0,0.0,25.3,24.3,33.7,W
2008-12-21,23.8,28.0,74.9,12.3,19.0,6.5,17.4,23.5,33.9,WSW
2008-12-22,28.8,34.0,60.5,11.0,19.0,5.0,20.2,24.2,22.7,W
2008-12-23,29.9,69.0,41.4,19.7,19.0,0.0,24.5,30.7,16.7,W
2008-12-24,28.0,91.0,50.0,15.2,20.0,0.0,21.4,36.1,18.4,SW
2008-12-25,26.9,88.0,51.5,15.4,22.0,0.0,20.4,39.5,20.6,NE
2008-12-26,36.1,36.0,53.6,15.1,13.0,5.8,27.2,21.9,24.2,W
2008-12-27,29.5,87.0,70.2,16.5,18.0,5.8,21.2,43.2,20.4,SSW
2008-12-28,19.4,51.0,49.7,12.5,24.0,6.5,16.0,37.4,22.1,SSW
2008-12-29,32.2,70.0,46.1,8.8,17.0,4.3,19.9,38.2,17.2,W
2008-12-30,22.1,89.0,48.2,14.5,25.0,7.2,18.3,52.5,23.5,SE
2008-12-31,24.9,91.0,37.8,9.0,26.0,0.0,16.7,60.7,15.8,ENE
